Flag for Vietnam Weather past 2 weeks in Ho Chi Minh, Vietnam

Now
79 °F

Passing clouds.


Feels Like: 82 °F
Forecast: 77 / 90 °F
Wind: 3 mph from North

Location: Ho Chi Minh

Current Time: Oct 26, 2014 at 2:47:32 AM

Latest Report: Oct 26, 2014 at 2:00 AM


Visibility: N/A

Pressure: 29.86 "Hg

Humidity: 89%

Dew point: 75 °F

Location of Ho Chi MinhLocation

Historic Weather in Ho Chi Minh — Graph

°F

Ho Chi Minh temperature yesterday

Maximum temperature yesterday: 91 °F (at 12:30 PM)
Minimum temperature yesterday: 77 °F (at 3:00 AM)
Average temperature yesterday: 83 °F

Past Weeks' High & Low Weather Summary

 TemperatureHumidityPressure
High93 °F (Oct 14, 3:00 PM)94% (Oct 16, 3:30 AM)29.95 "Hg (Oct 16, 3:30 AM)
Low75 °F (Oct 14, 3:30 AM)46% (Oct 12, 1:00 PM)29.71 "Hg (Oct 18, 2:00 PM)
Average82 °F78%29.84 "Hg
* Reported Oct 11 1:00 AM — Oct 26 1:30 AM, Ho Chi Minh, Weather by CustomWeather, © 2014

Note: Actual official high and low records may vary slightly from our data, if they occured in-between our weather recording intervals... More about our weather records

Advertising

Ho Chi Minh weather history for previous 24 hours

 ConditionsComfort  
Time TempWeatherWind HumidityBarometerVisibility
1:30 AM
Oct 26
79 °FPassing clouds.3 mph89%29.86 "HgN/A
1:00 AM79 °FPassing clouds.5 mph89%29.86 "HgN/A
12:30 AM79 °FPassing clouds.5 mph89%29.89 "HgN/A
12:00 AM81 °FPassing clouds.5 mph84%29.89 "HgN/A
11:30 PM
Oct 25
81 °FPassing clouds.5 mph84%29.89 "HgN/A
11:00 PM82 °FPassing clouds.2 mph79%29.92 "HgN/A
10:30 PM81 °FPassing clouds.5 mph84%29.92 "HgN/A
10:00 PM81 °FPassing clouds.3 mph84%29.92 "HgN/A
9:30 PM82 °FPassing clouds.5 mph79%29.92 "HgN/A
9:00 PM82 °FPassing clouds.5 mph79%29.89 "HgN/A
8:30 PM82 °FPassing clouds.6 mph79%29.89 "HgN/A
8:00 PM82 °FPassing clouds.6 mph79%29.89 "HgN/A
7:30 PM82 °FPassing clouds.5 mph79%29.86 "HgN/A
7:00 PM82 °FPassing clouds.6 mph79%29.86 "HgN/A
6:30 PM82 °FPassing clouds.7 mph74%29.86 "HgN/A
6:00 PM84 °FPassing clouds.8 mph74%29.83 "HgN/A
5:30 PM84 °FScattered clouds.6 mph74%29.83 "HgN/A
5:00 PM84 °FScattered clouds.7 mph70%29.80 "HgN/A
4:30 PM86 °FScattered clouds.10 mph66%29.80 "HgN/A
4:00 PM88 °FScattered clouds.8 mph62%29.80 "HgN/A
3:30 PM86 °FScattered clouds.13 mph70%29.80 "HgN/A
3:00 PM86 °FScattered clouds.9 mph70%29.77 "HgN/A
2:30 PM86 °FScattered clouds.10 mph70%29.77 "HgN/A
2:00 PM84 °FScattered clouds.1 mph74%29.80 "Hg5 mi
1:30 PM81 °FSprinkles. Scattered clouds.6 mph84%29.80 "Hg4 mi
1:00 PM88 °FScattered clouds.9 mph66%29.83 "HgN/A
12:30 PM91 °FPartly sunny.7 mph56%29.83 "HgN/A
12:00 PM90 °FScattered clouds.5 mph59%29.83 "HgN/A
11:30 AM90 °FScattered clouds.7 mph59%29.86 "HgN/A
11:00 AM90 °FScattered clouds.8 mph55%29.86 "HgN/A
10:30 AM90 °FScattered clouds.6 mph59%29.89 "HgN/A
10:00 AM88 °FScattered clouds.7 mph66%29.89 "HgN/A
9:30 AM88 °FScattered clouds.6 mph66%29.89 "HgN/A
9:00 AM84 °FScattered clouds.6 mph70%29.89 "HgN/A
8:30 AM84 °FScattered clouds.6 mph74%29.89 "Hg5 mi
8:00 AM84 °FPassing clouds.6 mph79%29.89 "Hg4 mi
7:30 AM82 °FFog.5 mph79%29.89 "Hg3 mi
7:00 AM81 °FFog.5 mph89%29.86 "Hg2 mi
6:30 AM79 °FFog.3 mph89%29.86 "Hg3 mi
6:00 AM77 °FPassing clouds.2 mph94%29.86 "Hg4 mi
5:30 AM77 °FPassing clouds.2 mph94%29.86 "HgN/A
5:00 AM77 °FPassing clouds.2 mph94%29.83 "HgN/A
4:30 AM77 °FPassing clouds.2 mph94%29.83 "HgN/A
4:00 AM77 °FPassing clouds.2 mph94%29.83 "HgN/A
3:30 AM77 °FPassing clouds.2 mph94%29.83 "HgN/A
3:00 AM77 °FPassing clouds.No wind94%29.83 "HgN/A
2:30 AM79 °FPassing clouds.No wind89%29.83 "HgN/A
2:00 AM79 °FPassing clouds.2 mph89%29.83 "HgN/A
Weather by CustomWeather, © 2014

See weather overviewHow to use our weather pages